Location: Bamazo
(6.7448°N, 10.8189°W)
Time: 01:26:14
(UTC+00:00)

Ariane H10+ - Pass Details

Date: 18 September 2020
Orbit: 636 x 36753 km, 4.7° (Epoch: 21 October)

Event Time Altitude Azimuth Distance (km) Brightness Sun altitude
Rises 20:24:21 0° 261° (W) 8,783 9.1 -26.4°
Reaches altitude 10° 20:33:38 10° 252° (WSW) 4,908 7.4 -28.7°
Maximum altitude 20:41:49 28° 194° (SSW) 1,697 4.3 -30.7°
Enters shadow 20:42:01 28° 190° (S) 1,665 4.2 -30.8°
